TimeEDT,TemperatureF,Dew PointF,Humidity,Sea Level PressureIn,VisibilityMPH,Wind Direction,Wind SpeedMPH,Gust SpeedMPH,PrecipitationIn,Events,Conditions,WindDirDegrees,DateUTC
12:52 AM,55.9,54.0,93,29.89,10.0,Calm,Calm,-,N/A,,Overcast,0,2012-09-10 04:52:00
1:52 AM,55.9,53.1,90,29.88,10.0,Variable,3.5,-,N/A,,Clear,0,2012-09-10 05:52:00
2:52 AM,54.0,52.0,93,29.89,10.0,Calm,Calm,-,N/A,,Scattered Clouds,0,2012-09-10 06:52:00
3:52 AM,52.0,51.1,97,29.90,10.0,Calm,Calm,-,N/A,,Clear,0,2012-09-10 07:52:00
4:52 AM,51.1,48.9,92,29.90,10.0,Calm,Calm,-,N/A,,Clear,0,2012-09-10 08:52:00
5:52 AM,48.9,48.0,97,29.92,5.0,Calm,Calm,-,N/A,,Clear,0,2012-09-10 09:52:00
6:07 AM,48.2,46.4,93,29.92,9.0,Calm,Calm,-,N/A,,Partly Cloudy,0,2012-09-10 10:07:00
6:16 AM,48.2,46.4,93,29.92,1.5,Calm,Calm,-,N/A,,Partly Cloudy,0,2012-09-10 10:16:00
6:18 AM,48.2,48.2,100,29.93,1.0,Calm,Calm,-,N/A,,Mist,0,2012-09-10 10:18:00
6:25 AM,48.2,46.4,93,29.93,0.5,Calm,Calm,-,N/A,Fog,Fog,0,2012-09-10 10:25:00
6:52 AM,48.0,48.0,100,29.95,0.5,Calm,Calm,-,N/A,Fog,Fog,0,2012-09-10 10:52:00
6:59 AM,48.2,48.2,100,29.95,1.2,Calm,Calm,-,N/A,,Partly Cloudy,0,2012-09-10 10:59:00
7:01 AM,48.2,48.2,100,29.95,2.0,Calm,Calm,-,N/A,,Partly Cloudy,0,2012-09-10 11:01:00
7:08 AM,50.0,48.2,94,29.95,10.0,Calm,Calm,-,N/A,,Clear,0,2012-09-10 11:08:00
7:52 AM,54.0,50.0,86,29.96,10.0,Calm,Calm,-,N/A,,Clear,0,2012-09-10 11:52:00
8:52 AM,59.0,48.0,67,29.97,10.0,North,8.1,-,N/A,,Clear,360,2012-09-10 12:52:00
9:52 AM,61.0,46.9,60,29.98,10.0,NNW,11.5,-,N/A,,Clear,330,2012-09-10 13:52:00
10:52 AM,62.1,46.9,58,29.98,10.0,NNW,12.7,-,N/A,,Mostly Cloudy,340,2012-09-10 14:52:00
11:52 AM,64.9,46.0,50,29.97,10.0,NNW,15.0,24.2,N/A,,Mostly Cloudy,340,2012-09-10 15:52:00
12:52 PM,64.9,46.0,50,29.96,10.0,NW,10.4,23.0,N/A,,Scattered Clouds,320,2012-09-10 16:52:00
1:52 PM,66.0,43.0,43,29.96,10.0,NNW,12.7,21.9,N/A,,Overcast,330,2012-09-10 17:52:00
3:52 PM,66.9,42.1,40,29.96,10.0,North,19.6,26.5,N/A,,Mostly Cloudy,360,2012-09-10 19:52:00
4:52 PM,64.9,43.0,45,29.98,10.0,NW,10.4,-,N/A,,Partly Cloudy,320,2012-09-10 20:52:00
5:52 PM,64.0,42.1,45,29.99,10.0,NNW,13.8,-,N/A,,Scattered Clouds,340,2012-09-10 21:52:00
6:52 PM,60.1,43.0,53,30.02,10.0,NNW,4.6,-,N/A,,Clear,330,2012-09-10 22:52:00
7:52 PM,57.9,42.1,56,30.05,10.0,NNW,9.2,-,N/A,,Partly Cloudy,330,2012-09-10 23:52:00
8:52 PM,55.9,42.1,60,30.07,10.0,NNW,5.8,-,N/A,,Overcast,330,2012-09-11 00:52:00
9:52 PM,53.1,42.1,66,30.08,10.0,Calm,Calm,-,N/A,,Clear,0,2012-09-11 01:52:00
10:52 PM,48.9,43.0,80,30.09,10.0,Calm,Calm,-,N/A,,Clear,0,2012-09-11 02:52:00
11:52 PM,46.0,43.0,89,30.10,10.0,Calm,Calm,-,N/A,,Clear,0,2012-09-11 03:52:00